Fairbanks, AK

12:48 PM AKDT on October 16, 2019 (GMT -0800)
Fairbanks International

Weather History for PAFA - May, 2019

Change the Weather History Date:

Thursday, May 23, 2019

  Actual Average Record
Temperature  
Mean Temperature 59 °F 52 °F  
Max Temperature 68 °F 64 °F 86 °F (2015)
Min Temperature 49 °F 41 °F 25 °F (1918)
Degree Days  
Heating Degree Days 6 13  
Month to date heating degree days 299 397  
Since 1 July heating degree days 11561 13421  
Cooling Degree Days 0 0  
Month to date cooling degree days 0 0  
Year to date cooling degree days 0 0  
Growing Degree Days 8 (Base 50)    
Moisture  
Dew Point 43 °F    
Average Humidity 56    
Maximum Humidity 80    
Minimum Humidity 26    
Precipitation  
Precipitation 0.05 in 0.02 in 0.35 in (1948)
Month to date precipitation 0.64 0.41  
Year to date precipitation 3.12 1.97  
Snow  
Snow 0.00 in 0.00 in T in (1949)
Month to date snowfall T 0.8  
Since 1 July snowfall 57.5 64.9  
Snow Depth 0.00 in    
Sea Level Pressure  
Sea Level Pressure 29.87 in    
Wind  
Wind Speed 5 mph (WSW)    
Max Wind Speed 21 mph    
Max Gust Speed 21 mph    
Visibility 10 miles    
Events Rain    
T = Trace of Precipitation, MM = Missing Value Source: NWS Daily Summary

Daily Weather History Graph

Daily Weather History Graph

Search for Another Location

Airport or City:

Astronomy

May. 23, 2019 Rise Set
Actual Time 4:01 AM AKDT 11:37 PM AKDT
Civil Twilight 2:20 AM AKDT 1:15 AM AKDT
Nautical Twilight Sun does not rise Sun does not rise
Astronomical Twilight Sun does not rise Sun does not rise
Moon 3:33 AM AKDT (5/23) 8:08 AM AKDT (5/23)
Length of Visible Light 22h 55m
Length of Day
19h 35m
Waning Gibbous, 76% of the Moon is Illuminated
May 23
Waning Gibbous
May 26
Last Quarter
Jun 3
New
Jun 9
First Quarter
Jun 17
Full

Hourly Weather History & Observations

Time (AKDT) Temp. Dew Point Humidity Pressure Visibility Wind Dir Wind Speed Gust Speed Precip Events Conditions
12:53 AM 54.0 °F 45.0 °F 72% 29.82 in 10.0 mi Calm Calm - N/A   Mostly Cloudy
1:53 AM 54.0 °F 44.1 °F 69% 29.82 in 10.0 mi Calm Calm - N/A   Mostly Cloudy
2:53 AM 55.0 °F 44.1 °F 67% 29.82 in 10.0 mi NE 3.5 mph - N/A   Mostly Cloudy
3:53 AM 50.0 °F 44.1 °F 80% 29.82 in 10.0 mi Calm Calm - N/A   Mostly Cloudy
4:53 AM 50.0 °F 44.1 °F 80% 29.83 in 10.0 mi WNW 3.5 mph - N/A   Mostly Cloudy
5:53 AM 52.0 °F 46.0 °F 80% 29.84 in 10.0 mi WSW 6.9 mph - N/A   Mostly Cloudy
6:53 AM 55.0 °F 46.9 °F 74% 29.84 in 10.0 mi SSE 3.5 mph - N/A   Mostly Cloudy
7:53 AM 55.0 °F 46.0 °F 72% 29.85 in 10.0 mi Calm Calm - N/A   Mostly Cloudy
8:53 AM 59.0 °F 43.0 °F 55% 29.86 in 10.0 mi Variable 3.5 mph - N/A   Mostly Cloudy
9:53 AM 55.0 °F 43.0 °F 64% 29.90 in 10.0 mi SSE 8.1 mph - 0.00 in Rain Light Rain
10:30 AM 55.0 °F 45.0 °F 69% 29.84 in 10.0 mi West 10.4 mph - 0.05 in Rain Light Rain
10:53 AM 55.9 °F 42.1 °F 60% 29.87 in 10.0 mi West 20.7 mph - 0.05 in   Mostly Cloudy
11:53 AM 60.1 °F 41.0 °F 49% 29.88 in 10.0 mi Variable 6.9 mph 19.6 mph N/A   Mostly Cloudy
12:53 PM 62.1 °F 39.9 °F 44% 29.88 in 10.0 mi WSW 8.1 mph - N/A   Mostly Cloudy
1:53 PM 66.0 °F 37.9 °F 36% 29.87 in 10.0 mi West 18.4 mph - N/A   Mostly Cloudy
2:53 PM 66.9 °F 39.9 °F 37% 29.87 in 10.0 mi West 12.7 mph - N/A   Mostly Cloudy
3:53 PM 66.0 °F 39.0 °F 37% 29.87 in 10.0 mi WSW 12.7 mph 17.3 mph N/A   Mostly Cloudy
4:53 PM 66.0 °F 39.9 °F 38% 29.87 in 10.0 mi SW 11.5 mph 20.7 mph N/A   Mostly Cloudy
5:53 PM 64.9 °F 39.9 °F 40% 29.87 in 10.0 mi WSW 10.4 mph - N/A   Scattered Clouds
6:53 PM 64.9 °F 39.9 °F 40% 29.88 in 10.0 mi West 12.7 mph - N/A   Mostly Cloudy
7:53 PM 63.0 °F 41.0 °F 45% 29.89 in 10.0 mi WSW 6.9 mph - N/A   Mostly Cloudy
8:53 PM 62.1 °F 39.9 °F 44% 29.90 in 10.0 mi WSW 11.5 mph - N/A   Mostly Cloudy
9:53 PM 59.0 °F 44.1 °F 58% 29.91 in 10.0 mi WSW 8.1 mph - N/A   Mostly Cloudy
10:53 PM 59.0 °F 43.0 °F 55% 29.93 in 10.0 mi Variable 4.6 mph - N/A   Mostly Cloudy
11:53 PM 59.0 °F 44.1 °F 58% 29.94 in 10.0 mi South 5.8 mph - N/A   Mostly Cloudy